星链-5336 (STARLINK-5336 )

导读

STARLINK-5336是美国SpaceX公司星链(Starlink)低轨互联网星座中的一颗卫星,于2023年6月23日发射升空。作为星链大规模组网的组成部分,它运行在近地轨道,依托星链星座的整体架构,为全球提供高速低延迟的卫星宽带服务,支持包括偏远地区互联网接入、移动网络连接等多元应用,是星链实现全球覆盖目标中的一环,也延续了星链项目推进大规模低轨卫星组网的发展节奏。

基本信息
目录编号:
57138
目录名称:
STARLINK-5336
国际标识:
2023-090AP
轨道中心:
EARTH
卫星名称:
星链-5336
卫星全名:
星链-5336 (STARLINK-5336 )
卫星状态:
在轨 (已飞行1177 天)
发射日期:
2023-06-23 UTC
国别 :
美国 (US)
星等 :
--
该卫星已列入 空间交会检测服务 Space Conjunction Data Service (SCDS) ,当前飞行风险评估等级: 高风险
轨道信息
数据来源 国际轨道数据 AOE轨道数据
星历时间 2026-09-12T10:16:25+0800
11小时前
查看轨道信息
2026-09-06T07:00:00+0800
6天前
查看轨道信息
半长轴 6861.197km 6861.196km
偏心率 0.0001599 0.0001968
轨道倾角 43.005° 43.003°
近地点辐角 297.161° 292.235°
升交点赤经 290.456° 325.116°
平近点角 62.908° 122.443°
近地点 481.962km 481.708km
远地点 484.158km 484.41km
周期 94.267分钟 94.267分钟
每日圈数 15.275766 15.27577
详细信息
固有亮度:
5
最大亮度:
2.4
卫星平台:
Starlink v1.5
覆盖范围:
全球
运营商:
太空探索技术公司
运营商所在国:
美国
制造商(研发单位):
太空探索技术公司
制造商所在国:
美国
使用方式:
暂无
卫星简介
星链(Starlink)计划是由太空探索技术公司(SpaceX)提出的一个巨型低轨卫星互联网星座项目,计划在2019年至2024年间在太空搭建由约1.2万颗卫星组成的“星链”网络,其中1584颗将部署在地球上空550千米处的近地轨道,并从2020年开始工作。该卫星仍在工作。
2D轨道图
3D轨道图
轨道高度分析图
轨道倾角分析图
轨道综合分析图
查看轨道综合分析图
交会数据列表
事件ID 空间交会对象 最接近时刻(TCA) 交会距离 交会风险概率(CRP) 交会风险指数(CRI) 操作
CDM_260913-160905-713806-712621
2026-09-13T
16:09:41+0000
0.658 km
远距离
6.596618E-5 中风险 0.71
CDM_260914-053005-713806-712621
2026-09-14T
05:30:00+0000
1.023 km
极远距离
1.56984E-5 中风险 0.59
CDM_260913-143505-713806-712621
2026-09-13T
14:35:32+0000
1.124 km
极远距离
1.133025E-5 中风险 0.56
CDM_260913-204505-713806-433321
2026-09-13T
20:45:20+0000
1.411 km
极远距离
6.208681E-6 低风险 0.51
CDM_260910-031605-713805-717526
OBJECT K (57175)
2026-09-10T
03:16:38+0000
1.335 km
极远距离
6.035963E-6 低风险 0.51
CDM_260915-010905-713806-793421
2026-09-15T
01:09:38+0000
1.356 km
极远距离
5.141893E-6 低风险 0.49
CDM_260913-191105-713806-433322
2026-09-13T
19:11:11+0000
1.667 km
极远距离
3.652091E-6 低风险 0.46
CDM_260914-083105-713806-433322
2026-09-14T
08:31:28+0000
1.679 km
极远距离
3.57692E-6 低风险 0.46
CDM_260914-070405-713806-712621
2026-09-14T
07:04:09+0000
1.646 km
极远距离
3.215509E-6 低风险 0.45
CDM_260915-024305-713806-793421
2026-09-15T
02:43:48+0000
1.580 km
极远距离
3.158872E-6 低风险 0.45
与全量物体交会距离演化趋势
与全量物体交会风险概率演化趋势